Location: *
(49.6619°S, 177.4603°W)
Time: 05:16:08
(UTC+00:00)

Cosmos 540 Rocket - Pass Details

Date: 31 January 2023
Orbit: 740 x 751 km, 74.1° (Epoch: 01 April)

Event Time Altitude Azimuth Distance (km) Brightness Sun altitude
Exits shadow 09:31:25 - 339° (NNW) 2,879 6.2 -15.0°
Reaches altitude 10° 09:33:00 10° 339° (NNW) 2,262 5.6 -15.2°
Maximum altitude 09:38:09 88° 68° (ENE) 760 3.4 -15.7°
Drops below altitude 10° 09:43:21 10° 156° (SSE) 2,291 6.4 -16.2°
Sets 09:45:44 0° 156° (SSE) 3,222 7.2 -16.4°
